Find STARLINK-37543

NORAD ID: 68911 Constellation: starlink operational
LEOCIRCULARRETROGRADE

リアルタイム位置

3D地球を読み込み中...

STARLINK-37543について

説明を読み込み中...

次回通過

Passes for default location (London). Set your location on the main map for personalized predictions.

高度履歴

Loading altitude history...

軌道要素

1 68911U 26097S 26125.50001156 -.02048048 12035-2 -48299-2 0 9998
2 68911 97.2870 320.4963 0001428 86.4224 150.9452 15.96981164 2062
Epoch: May 5, 2026 • Age: 8 hours